User: anonymous   Login
Location: Unspecified
(0.0000°N, 0.0000°E)
Time: 23:27:11
(UTC+00:00)
Language:

DSP F17 - Orbit

View from above orbital plane
View from above orbital plane
View from above satellite
View from above satellite

Ground track
Ground track

The orbit data is extracted from the following two-line orbital elements,

1 23435U 94084A   17323.03228032 0.00000000  00000-0  00000-0 0    01
2 23435  14.2471  20.8868 0009622 259.4647 100.4338  1.00270000    05
Epoch (UTC): 19 November 2017 00:46:29
Eccentricity: 0.0009622
inclination: 14.2471°
perigee height: 35746 km
apogee height: 35827 km
right ascension of ascending node: 20.8868°
argument of perigee: 259.4647°
revolutions per day: 1.00270000
mean anomaly at epoch: 100.4338°
orbit number at epoch: 0

The dashed part of the orbit path shows where the satellite is in the earth's shadow,  

DLR